Time,TemperatureF,DewpointF,PressureIn,WindDirection,WindDirectionDegrees,WindSpeedMPH,WindSpeedGustMPH,Humidity,HourlyPrecipIn,Conditions,Clouds,dailyrainin,SoftwareType,DateUTC
2013-09-14 00:02:00,47.1,43.7,29.59,West,270,0.0,0.0,88,0.00,CLR,SKC,0.00,WeatherDisplay:10.37,2013-09-13 23:02:00,
2013-09-14 00:07:00,46.9,43.9,29.59,West,270,0.0,0.0,89,0.00,CLR,SKC,0.00,WeatherDisplay:10.37,2013-09-13 23:07:00,
2013-09-14 00:12:00,46.8,43.7,29.58,West,270,0.0,0.0,89,0.00,CLR,SKC,0.00,WeatherDisplay:10.37,2013-09-13 23:12:00,
2013-09-14 00:17:00,46.6,43.2,29.58,West,270,0.0,0.0,88,0.00,CLR,SKC,0.00,WeatherDisplay:10.37,2013-09-13 23:17:00,
2013-09-14 00:22:00,46.2,42.9,29.58,West,270,0.0,0.0,88,0.00,CLR,SKC,0.00,WeatherDisplay:10.37,2013-09-13 23:22:00,
2013-09-14 00:27:00,46.0,42.7,29.58,West,270,0.0,0.0,88,0.00,CLR,SKC,0.00,WeatherDisplay:10.37,2013-09-13 23:27:00,
2013-09-14 00:32:00,45.7,42.3,29.58,West,270,0.0,0.0,88,0.00,CLR,SKC,0.00,WeatherDisplay:10.37,2013-09-13 23:32:00,
2013-09-14 00:37:00,45.5,42.2,29.58,West,270,0.0,0.0,88,0.00,CLR,SKC,0.00,WeatherDisplay:10.37,2013-09-13 23:37:00,
2013-09-14 00:42:00,45.3,42.0,29.57,West,270,0.0,0.0,88,0.00,CLR,SKC,0.00,WeatherDisplay:10.37,2013-09-13 23:42:00,
2013-09-14 00:47:00,45.1,42.1,29.57,West,270,0.0,0.0,89,0.00,CLR,SKC,0.00,WeatherDisplay:10.37,2013-09-13 23:47:00,
2013-09-14 00:52:00,45.0,41.9,29.58,West,270,0.0,0.0,89,0.00,CLR,SKC,0.00,WeatherDisplay:10.37,2013-09-13 23:52:00,
2013-09-14 00:57:00,45.0,41.9,29.58,West,270,0.0,0.0,89,0.00,CLR,SKC,0.00,WeatherDisplay:10.37,2013-09-13 23:57:00,
2013-09-14 01:02:00,44.8,41.7,29.58,West,270,0.0,0.0,89,0.00,CLR,SKC,0.00,WeatherDisplay:10.37,2013-09-14 00:02:00,
2013-09-14 01:07:00,44.6,41.6,29.58,West,270,0.0,0.0,89,0.00,CLR,SKC,0.00,WeatherDisplay:10.37,2013-09-14 00:07:00,
2013-09-14 01:12:00,44.4,41.4,29.57,West,270,0.0,0.0,89,0.00,CLR,SKC,0.00,WeatherDisplay:10.37,2013-09-14 00:12:00,
2013-09-14 01:17:00,44.4,41.4,29.57,West,270,0.0,0.0,89,0.00,CLR,SKC,0.00,WeatherDisplay:10.37,2013-09-14 00:17:00,
2013-09-14 01:22:00,44.2,41.2,29.58,West,270,0.0,0.0,89,0.00,CLR,SKC,0.00,WeatherDisplay:10.37,2013-09-14 00:22:00,
2013-09-14 01:27:00,44.2,41.2,29.58,West,270,0.0,0.0,89,0.00,CLR,SKC,0.00,WeatherDisplay:10.37,2013-09-14 00:27:00,
2013-09-14 01:32:00,43.9,40.8,29.58,West,270,0.0,0.0,89,0.00,CLR,SKC,0.00,WeatherDisplay:10.37,2013-09-14 00:32:00,
2013-09-14 01:37:00,43.7,40.7,29.58,West,270,0.0,0.0,89,0.00,CLR,SKC,0.00,WeatherDisplay:10.37,2013-09-14 00:37:00,
2013-09-14 01:42:00,43.5,40.5,29.58,West,270,0.0,0.0,89,0.00,CLR,SKC,0.00,WeatherDisplay:10.37,2013-09-14 00:42:00,
2013-09-14 01:47:00,43.5,40.5,29.58,West,270,0.0,0.0,89,0.00,CLR,SKC,0.00,WeatherDisplay:10.37,2013-09-14 00:47:00,
2013-09-14 01:52:00,43.5,40.5,29.58,West,270,0.0,0.0,89,0.00,CLR,SKC,0.00,WeatherDisplay:10.37,2013-09-14 00:52:00,
2013-09-14 01:57:00,43.3,40.3,29.58,West,270,0.0,0.0,89,0.00,CLR,SKC,0.00,WeatherDisplay:10.37,2013-09-14 00:57:00,
2013-09-14 02:02:00,43.3,40.3,29.58,West,270,0.0,0.0,89,0.00,CLR,SKC,0.00,WeatherDisplay:10.37,2013-09-14 01:02:00,
2013-09-14 02:07:00,43.2,40.1,29.58,West,270,0.0,0.0,89,0.00,CLR,SKC,0.00,WeatherDisplay:10.37,2013-09-14 01:07:00,
2013-09-14 02:12:00,43.0,40.0,29.58,West,270,0.0,0.0,89,0.00,CLR,SKC,0.00,WeatherDisplay:10.37,2013-09-14 01:12:00,
2013-09-14 02:17:00,43.0,40.0,29.58,West,270,0.0,0.0,89,0.00,CLR,SKC,0.00,WeatherDisplay:10.37,2013-09-14 01:17:00,
2013-09-14 02:22:00,43.0,40.0,29.57,West,270,0.0,0.0,89,0.00,CLR,SKC,0.00,WeatherDisplay:10.37,2013-09-14 01:22:00,
2013-09-14 02:27:00,43.0,40.0,29.58,West,270,0.0,0.0,89,0.00,CLR,SKC,0.00,WeatherDisplay:10.37,2013-09-14 01:27:00,
2013-09-14 02:32:00,43.0,40.0,29.58,WNW,292,0.0,0.0,89,0.00,CLR,SKC,0.00,WeatherDisplay:10.37,2013-09-14 01:32:00,
2013-09-14 02:37:00,43.0,40.0,29.58,West,270,0.0,0.0,89,0.00,CLR,SKC,0.00,WeatherDisplay:10.37,2013-09-14 01:37:00,
2013-09-14 02:42:00,43.0,40.0,29.57,West,270,0.0,0.0,89,0.00,CLR,SKC,0.00,WeatherDisplay:10.37,2013-09-14 01:42:00,
2013-09-14 02:47:00,43.0,40.0,29.58,West,270,0.0,0.0,89,0.00,CLR,SKC,0.00,WeatherDisplay:10.37,2013-09-14 01:47:00,
2013-09-14 02:52:00,43.0,40.0,29.58,West,270,0.0,0.0,89,0.00,CLR,SKC,0.00,WeatherDisplay:10.37,2013-09-14 01:52:00,
2013-09-14 02:57:00,42.6,39.9,29.58,West,270,0.0,0.0,90,0.00,CLR,SKC,0.00,WeatherDisplay:10.37,2013-09-14 01:57:00,
2013-09-14 03:02:00,42.6,39.9,29.58,West,270,0.0,0.0,90,0.00,CLR,SKC,0.00,WeatherDisplay:10.37,2013-09-14 02:02:00,
2013-09-14 03:07:00,42.6,39.9,29.58,West,270,0.0,0.0,90,0.00,CLR,SKC,0.00,WeatherDisplay:10.37,2013-09-14 02:07:00,
2013-09-14 03:12:00,42.4,39.7,29.58,West,270,0.0,0.0,90,0.00,CLR,SKC,0.00,WeatherDisplay:10.37,2013-09-14 02:12:00,
2013-09-14 03:17:00,42.4,39.7,29.58,West,270,0.0,0.0,90,0.00,CLR,SKC,0.00,WeatherDisplay:10.37,2013-09-14 02:17:00,
2013-09-14 03:23:00,42.1,39.4,29.58,West,270,0.0,0.0,90,0.00,CLR,SKC,0.00,WeatherDisplay:10.37,2013-09-14 02:23:00,
2013-09-14 03:28:00,41.9,39.2,29.58,West,270,0.0,0.0,90,0.00,CLR,SKC,0.00,WeatherDisplay:10.37,2013-09-14 02:28:00,
2013-09-14 03:33:00,41.9,39.2,29.58,West,270,0.0,0.0,90,0.00,CLR,SKC,0.00,WeatherDisplay:10.37,2013-09-14 02:33:00,
2013-09-14 03:38:00,41.9,39.2,29.59,West,270,0.0,0.0,90,0.00,CLR,SKC,0.00,WeatherDisplay:10.37,2013-09-14 02:38:00,
2013-09-14 03:43:00,41.9,39.2,29.58,West,270,0.0,0.0,90,0.00,CLR,SKC,0.00,WeatherDisplay:10.37,2013-09-14 02:43:00,
2013-09-14 03:48:00,42.1,39.4,29.58,West,270,0.0,0.0,90,0.00,CLR,SKC,0.00,WeatherDisplay:10.37,2013-09-14 02:48:00,
2013-09-14 03:53:00,42.1,39.4,29.59,West,270,0.0,0.0,90,0.00,CLR,SKC,0.00,WeatherDisplay:10.37,2013-09-14 02:53:00,
2013-09-14 03:58:00,42.1,39.4,29.58,West,270,0.0,0.0,90,0.00,CLR,SKC,0.00,WeatherDisplay:10.37,2013-09-14 02:58:00,
2013-09-14 04:03:00,42.1,39.4,29.58,West,270,0.0,0.0,90,0.00,CLR,SKC,0.00,WeatherDisplay:10.37,2013-09-14 03:03:00,
2013-09-14 04:08:00,42.1,39.4,29.58,West,270,0.0,0.0,90,0.00,CLR,SKC,0.00,WeatherDisplay:10.37,2013-09-14 03:08:00,
2013-09-14 04:13:00,42.4,39.7,29.58,West,270,0.0,0.0,90,0.00,CLR,SKC,0.00,WeatherDisplay:10.37,2013-09-14 03:13:00,
2013-09-14 04:18:00,42.4,39.7,29.58,West,270,0.0,0.0,90,0.00,CLR,SKC,0.00,WeatherDisplay:10.37,2013-09-14 03:18:00,
2013-09-14 04:23:00,42.4,39.7,29.58,West,270,0.0,0.0,90,0.00,CLR,SKC,0.00,WeatherDisplay:10.37,2013-09-14 03:23:00,
2013-09-14 04:28:00,42.4,39.7,29.58,West,270,0.0,0.0,90,0.00,CLR,SKC,0.00,WeatherDisplay:10.37,2013-09-14 03:28:00,
2013-09-14 04:33:00,42.4,39.7,29.58,West,270,0.0,0.0,90,0.00,CLR,SKC,0.00,WeatherDisplay:10.37,2013-09-14 03:33:00,
2013-09-14 04:38:00,42.4,39.7,29.58,West,270,0.0,0.0,90,0.00,CLR,SKC,0.00,WeatherDisplay:10.37,2013-09-14 03:38:00,
2013-09-14 04:43:00,42.4,39.7,29.58,West,270,0.0,0.0,90,0.00,CLR,SKC,0.00,WeatherDisplay:10.37,2013-09-14 03:43:00,
2013-09-14 04:48:00,42.6,39.9,29.58,West,270,0.0,0.0,90,0.00,CLR,SKC,0.00,WeatherDisplay:10.37,2013-09-14 03:48:00,
2013-09-14 04:53:00,42.6,40.2,29.58,West,270,0.0,0.0,91,0.00,CLR,SKC,0.00,WeatherDisplay:10.37,2013-09-14 03:53:00,
2013-09-14 04:58:00,42.6,40.2,29.58,West,270,0.0,0.0,91,0.00,CLR,SKC,0.00,WeatherDisplay:10.37,2013-09-14 03:58:00,
2013-09-14 05:01:00,42.6,40.2,29.58,West,270,0.0,0.0,91,0.00,CLR,SKC,0.00,WeatherDisplay:10.37,2013-09-14 04:01:00,
2013-09-14 05:03:00,42.6,40.2,29.58,West,270,0.0,0.0,91,0.00,CLR,SKC,0.00,WeatherDisplay:10.37,2013-09-14 04:03:00,
2013-09-14 05:08:00,42.6,40.2,29.58,West,270,0.0,0.0,91,0.00,CLR,SKC,0.00,WeatherDisplay:10.37,2013-09-14 04:08:00,
2013-09-14 05:13:00,42.6,40.2,29.58,West,270,0.0,0.0,91,0.00,CLR,SKC,0.00,WeatherDisplay:10.37,2013-09-14 04:13:00,
2013-09-14 05:18:00,42.6,40.2,29.59,West,270,0.0,0.0,91,0.00,CLR,SKC,0.00,WeatherDisplay:10.37,2013-09-14 04:18:00,
2013-09-14 05:23:00,42.6,40.2,29.59,West,270,0.0,0.0,91,0.00,CLR,SKC,0.00,WeatherDisplay:10.37,2013-09-14 04:23:00,
2013-09-14 05:28:00,42.6,40.2,29.58,West,270,0.0,0.0,91,0.00,CLR,SKC,0.00,WeatherDisplay:10.37,2013-09-14 04:28:00,
2013-09-14 05:33:00,42.6,40.2,29.58,West,270,0.0,0.0,91,0.00,CLR,SKC,0.00,WeatherDisplay:10.37,2013-09-14 04:33:00,
2013-09-14 05:38:00,42.6,40.2,29.58,West,270,0.0,0.0,91,0.00,CLR,SKC,0.00,WeatherDisplay:10.37,2013-09-14 04:38:00,
2013-09-14 05:43:00,42.6,40.2,29.58,West,270,0.0,0.0,91,0.00,CLR,SKC,0.00,WeatherDisplay:10.37,2013-09-14 04:43:00,
2013-09-14 05:48:00,42.6,40.2,29.59,West,270,0.0,0.0,91,0.00,CLR,SKC,0.00,WeatherDisplay:10.37,2013-09-14 04:48:00,
2013-09-14 05:53:00,42.6,40.2,29.58,West,270,0.0,0.0,91,0.00,CLR,SKC,0.00,WeatherDisplay:10.37,2013-09-14 04:53:00,
2013-09-14 05:58:00,42.4,40.0,29.58,West,270,0.0,0.0,91,0.00,CLR,SKC,0.00,WeatherDisplay:10.37,2013-09-14 04:58:00,
2013-09-14 06:03:00,42.4,40.0,29.59,West,270,0.0,0.0,91,0.00,CLR,SKC,0.00,WeatherDisplay:10.37,2013-09-14 05:03:00,
2013-09-14 06:08:00,42.4,40.0,29.59,NW,315,0.0,0.0,91,0.00,CLR,SKC,0.00,WeatherDisplay:10.37,2013-09-14 05:08:00,
2013-09-14 06:13:00,42.1,39.6,29.59,NW,315,0.0,0.0,91,0.00,CLR,SKC,0.00,WeatherDisplay:10.37,2013-09-14 05:13:00,
2013-09-14 06:18:00,42.1,39.6,29.59,NW,315,0.0,0.0,91,0.00,CLR,SKC,0.00,WeatherDisplay:10.37,2013-09-14 05:18:00,
2013-09-14 06:23:00,41.9,39.5,29.59,NW,315,0.0,0.0,91,0.00,CLR,SKC,0.00,WeatherDisplay:10.37,2013-09-14 05:23:00,
2013-09-14 06:28:00,41.7,39.3,29.59,NW,315,0.0,0.0,91,0.00,CLR,SKC,0.00,WeatherDisplay:10.37,2013-09-14 05:28:00,
2013-09-14 06:33:00,41.5,39.1,29.59,NW,315,0.0,0.0,91,0.00,CLR,SKC,0.00,WeatherDisplay:10.37,2013-09-14 05:33:00,
2013-09-14 06:39:00,41.4,38.9,29.59,NW,315,0.0,0.0,91,0.00,CLR,SKC,0.00,WeatherDisplay:10.37,2013-09-14 05:39:00,
2013-09-14 06:44:00,41.2,38.8,29.59,NW,315,0.0,0.0,91,0.00,CLR,SKC,0.00,WeatherDisplay:10.37,2013-09-14 05:44:00,
2013-09-14 06:49:00,41.2,38.5,29.59,NW,315,0.0,0.0,90,0.00,CLR,SKC,0.00,WeatherDisplay:10.37,2013-09-14 05:49:00,
2013-09-14 06:54:00,41.0,38.6,29.59,NW,315,0.0,0.0,91,0.00,CLR,SKC,0.00,WeatherDisplay:10.37,2013-09-14 05:54:00,
2013-09-14 06:59:00,41.0,38.6,29.59,NW,315,0.0,0.0,91,0.00,CLR,SKC,0.00,WeatherDisplay:10.37,2013-09-14 05:59:00,
2013-09-14 07:04:00,41.0,38.6,29.60,NW,315,0.0,0.0,91,0.00,CLR,SKC,0.00,WeatherDisplay:10.37,2013-09-14 06:04:00,
2013-09-14 07:09:00,41.0,38.6,29.60,NW,315,0.0,0.0,91,0.00,CLR,SKC,0.00,WeatherDisplay:10.37,2013-09-14 06:09:00,
2013-09-14 07:14:00,40.8,38.4,29.60,NW,315,0.0,0.0,91,0.00,CLR,SKC,0.00,WeatherDisplay:10.37,2013-09-14 06:14:00,
2013-09-14 07:19:00,41.0,38.6,29.60,NW,315,0.0,0.0,91,0.00,CLR,SKC,0.00,WeatherDisplay:10.37,2013-09-14 06:19:00,
2013-09-14 07:24:00,41.0,38.6,29.60,NW,315,0.0,0.0,91,0.00,CLR,SKC,0.00,WeatherDisplay:10.37,2013-09-14 06:24:00,
2013-09-14 07:29:00,41.2,38.8,29.60,NW,315,0.0,0.0,91,0.00,CLR,SKC,0.00,WeatherDisplay:10.37,2013-09-14 06:29:00,
2013-09-14 07:34:00,41.2,38.8,29.60,NW,315,0.0,0.0,91,0.00,CLR,SKC,0.00,WeatherDisplay:10.37,2013-09-14 06:34:00,
2013-09-14 07:39:00,41.5,39.1,29.60,NW,315,0.0,0.0,91,0.00,CLR,SKC,0.00,WeatherDisplay:10.37,2013-09-14 06:39:00,
2013-09-14 07:44:00,41.5,39.1,29.60,NW,315,0.0,0.0,91,0.00,CLR,SKC,0.00,WeatherDisplay:10.37,2013-09-14 06:44:00,
2013-09-14 07:49:00,41.9,39.5,29.60,NW,315,0.0,0.0,91,0.00,CLR,SKC,0.00,WeatherDisplay:10.37,2013-09-14 06:49:00,
2013-09-14 07:54:00,42.1,39.6,29.61,NW,315,0.0,0.0,91,0.00,CLR,SKC,0.00,WeatherDisplay:10.37,2013-09-14 06:54:00,
2013-09-14 07:59:00,42.4,40.0,29.61,NW,315,0.0,0.0,91,0.00,CLR,SKC,0.00,WeatherDisplay:10.37,2013-09-14 06:59:00,
2013-09-14 08:04:00,43.5,41.1,29.61,NW,315,0.0,0.0,91,0.00,CLR,SKC,0.00,WeatherDisplay:10.37,2013-09-14 07:04:00,
2013-09-14 08:09:00,45.3,43.4,29.61,NW,315,0.0,0.0,93,0.00,CLR,SKC,0.00,WeatherDisplay:10.37,2013-09-14 07:09:00,
2013-09-14 08:14:00,48.0,46.4,29.62,NW,315,0.0,0.0,94,0.00,CLR,SKC,0.00,WeatherDisplay:10.37,2013-09-14 07:14:00,
2013-09-14 08:19:00,51.4,49.8,29.61,WNW,292,0.0,0.0,94,0.00,CLR,SKC,0.00,WeatherDisplay:10.37,2013-09-14 07:19:00,
2013-09-14 08:24:00,52.5,50.8,29.61,WNW,292,0.0,0.0,94,0.00,CLR,SKC,0.00,WeatherDisplay:10.37,2013-09-14 07:24:00,
2013-09-14 08:29:00,55.2,53.2,29.61,WNW,292,0.0,0.0,93,0.00,CLR,SKC,0.00,WeatherDisplay:10.37,2013-09-14 07:29:00,
2013-09-14 08:34:00,57.0,54.4,29.61,WNW,292,0.0,0.0,91,0.02,RA,SKC,0.02,WeatherDisplay:10.37,2013-09-14 07:34:00,
2013-09-14 08:39:00,58.8,55.9,29.61,WNW,292,0.0,0.0,90,0.02,RA,SKC,0.02,WeatherDisplay:10.37,2013-09-14 07:39:00,
2013-09-14 08:44:00,60.4,56.9,29.61,WNW,292,0.0,0.0,88,0.02,,SKC,0.02,WeatherDisplay:10.37,2013-09-14 07:44:00,
2013-09-14 08:49:00,61.2,55.6,29.61,NNW,338,0.0,0.0,82,0.02,CLR,SKC,0.02,WeatherDisplay:10.37,2013-09-14 07:49:00,
2013-09-14 08:54:00,61.2,54.9,29.61,NNW,338,0.0,0.0,80,0.02,CLR,SKC,0.02,WeatherDisplay:10.37,2013-09-14 07:54:00,
2013-09-14 08:59:00,60.6,53.4,29.61,WNW,292,0.0,0.0,77,0.02,CLR,SKC,0.02,WeatherDisplay:10.37,2013-09-14 07:59:00,
2013-09-14 09:04:00,60.4,52.8,29.61,WSW,248,0.0,0.0,76,0.02,CLR,SKC,0.02,WeatherDisplay:10.37,2013-09-14 08:04:00,
2013-09-14 09:09:00,60.6,52.6,29.61,West,270,0.0,0.0,75,0.02,CLR,SKC,0.02,WeatherDisplay:10.37,2013-09-14 08:09:00,
2013-09-14 09:14:00,61.0,52.6,29.61,NW,315,0.0,0.0,74,0.02,CLR,SKC,0.02,WeatherDisplay:10.37,2013-09-14 08:14:00,
2013-09-14 09:19:00,61.3,53.0,29.61,NW,315,0.0,0.0,74,0.02,CLR,SKC,0.02,WeatherDisplay:10.37,2013-09-14 08:19:00,
2013-09-14 09:24:00,61.9,53.1,29.61,WNW,292,0.0,0.0,73,0.02,CLR,SKC,0.02,WeatherDisplay:10.37,2013-09-14 08:24:00,
2013-09-14 09:29:00,62.4,53.6,29.62,SSW,202,0.0,0.0,73,0.02,CLR,SKC,0.02,WeatherDisplay:10.37,2013-09-14 08:29:00,
2013-09-14 09:34:00,63.7,54.5,29.62,West,270,0.0,0.0,72,0.00,CLR,SKC,0.02,WeatherDisplay:10.37,2013-09-14 08:34:00,
2013-09-14 09:39:00,64.2,54.2,29.62,NNW,338,0.0,0.0,70,0.00,CLR,SKC,0.02,WeatherDisplay:10.37,2013-09-14 08:39:00,
2013-09-14 09:44:00,64.2,53.4,29.62,NNW,338,0.0,0.0,68,0.00,CLR,SKC,0.02,WeatherDisplay:10.37,2013-09-14 08:44:00,
2013-09-14 09:49:00,64.0,53.3,29.62,WSW,248,0.0,0.0,68,0.00,CLR,SKC,0.02,WeatherDisplay:10.37,2013-09-14 08:49:00,
2013-09-14 09:54:00,61.7,50.6,29.62,WNW,292,0.0,0.0,67,0.00,CLR,SKC,0.02,WeatherDisplay:10.37,2013-09-14 08:54:00,
2013-09-14 09:59:00,60.6,50.0,29.62,NW,315,0.0,0.0,68,0.00,CLR,SKC,0.02,WeatherDisplay:10.37,2013-09-14 08:59:00,
2013-09-14 10:04:00,60.4,50.6,29.62,NW,315,0.0,0.0,70,0.00,CLR,SKC,0.02,WeatherDisplay:10.37,2013-09-14 09:04:00,
2013-09-14 10:09:00,60.8,50.6,29.62,NW,315,0.0,0.0,69,0.00,CLR,SKC,0.02,WeatherDisplay:10.37,2013-09-14 09:09:00,
2013-09-14 10:15:00,61.0,50.7,29.62,NW,315,0.0,0.0,69,0.00,CLR,SKC,0.02,WeatherDisplay:10.37,2013-09-14 09:15:00,
2013-09-14 10:20:00,60.6,50.8,29.62,West,270,0.0,0.0,70,0.00,CLR,SKC,0.02,WeatherDisplay:10.37,2013-09-14 09:20:00,
2013-09-14 10:25:00,62.2,52.7,29.62,West,267,0.0,0.0,71,0.00,CLR,SKC,0.02,WeatherDisplay:10.37,2013-09-14 09:25:00,
2013-09-14 10:30:00,63.3,53.0,29.62,WNW,292,0.0,0.0,69,0.00,CLR,SKC,0.02,WeatherDisplay:10.37,2013-09-14 09:30:00,
2013-09-14 10:35:00,64.8,53.9,29.62,WNW,292,0.0,0.0,68,0.00,CLR,SKC,0.02,WeatherDisplay:10.37,2013-09-14 09:35:00,
2013-09-14 10:40:00,66.1,55.3,29.62,West,261,0.0,0.0,68,0.00,CLR,SKC,0.02,WeatherDisplay:10.37,2013-09-14 09:40:00,
2013-09-14 10:45:00,67.8,56.5,29.62,SW,225,0.0,0.0,67,0.00,CLR,SKC,0.02,WeatherDisplay:10.37,2013-09-14 09:45:00,
2013-09-14 10:50:00,68.9,54.0,29.62,NW,315,0.0,0.0,59,0.00,CLR,SKC,0.02,WeatherDisplay:10.37,2013-09-14 09:50:00,
2013-09-14 10:55:00,69.3,53.9,29.62,NNW,332,0.0,0.0,58,0.00,CLR,SKC,0.02,WeatherDisplay:10.37,2013-09-14 09:55:00,
2013-09-14 11:00:00,69.6,52.7,29.62,North,0,0.0,0.0,55,0.00,CLR,SKC,0.02,WeatherDisplay:10.37,2013-09-14 10:00:00,
2013-09-14 11:05:00,70.5,53.5,29.62,NNW,331,0.0,0.0,55,0.00,CLR,SKC,0.02,WeatherDisplay:10.37,2013-09-14 10:05:00,
2013-09-14 11:10:00,71.2,52.7,29.62,WNW,292,0.0,0.0,52,0.00,CLR,SKC,0.02,WeatherDisplay:10.37,2013-09-14 10:10:00,
2013-09-14 11:15:00,71.8,52.7,29.62,North,0,0.0,0.0,51,0.00,CLR,SKC,0.02,WeatherDisplay:10.37,2013-09-14 10:15:00,
2013-09-14 11:20:00,72.2,51.5,29.62,NNE,21,0.0,0.0,48,0.00,CLR,SKC,0.02,WeatherDisplay:10.37,2013-09-14 10:20:00,
2013-09-14 11:25:00,72.1,51.4,29.62,NNE,19,0.0,0.0,48,0.00,CLR,SKC,0.02,WeatherDisplay:10.37,2013-09-14 10:25:00,
2013-09-14 11:30:00,72.3,51.0,29.62,North,0,0.0,0.0,47,0.00,CLR,SKC,0.02,WeatherDisplay:10.37,2013-09-14 10:30:00,
2013-09-14 11:35:00,71.8,50.5,29.62,NNW,341,0.0,0.0,47,0.00,CLR,SKC,0.02,WeatherDisplay:10.37,2013-09-14 10:35:00,
2013-09-14 11:40:00,70.9,49.6,29.62,North,0,0.0,0.0,47,0.00,CLR,SKC,0.02,WeatherDisplay:10.37,2013-09-14 10:40:00,
2013-09-14 11:45:00,70.5,49.3,29.63,North,354,0.0,0.0,47,0.00,CLR,SKC,0.02,WeatherDisplay:10.37,2013-09-14 10:45:00,
2013-09-14 11:50:00,70.3,49.1,29.62,NNE,22,0.0,0.0,47,0.00,CLR,SKC,0.02,WeatherDisplay:10.37,2013-09-14 10:50:00,
2013-09-14 11:55:00,70.7,50.0,29.62,NNW,338,0.0,0.0,48,0.00,CLR,SKC,0.02,WeatherDisplay:10.37,2013-09-14 10:55:00,
2013-09-14 12:00:00,71.2,50.0,29.62,North,351,0.0,0.0,47,0.00,CLR,SKC,0.02,WeatherDisplay:10.37,2013-09-14 11:00:00,
2013-09-14 12:05:00,71.4,49.6,29.62,ENE,68,0.0,0.0,46,0.00,CLR,SKC,0.02,WeatherDisplay:10.37,2013-09-14 11:05:00,
2013-09-14 12:10:00,71.4,49.6,29.62,NNE,22,0.0,0.0,46,0.00,CLR,SKC,0.02,WeatherDisplay:10.37,2013-09-14 11:10:00,
2013-09-14 12:15:00,72.0,50.0,29.62,North,354,0.0,0.0,46,0.00,CLR,SKC,0.02,WeatherDisplay:10.37,2013-09-14 11:15:00,
2013-09-14 12:20:00,71.1,48.1,29.62,North,3,0.0,0.0,44,0.00,CLR,SKC,0.02,WeatherDisplay:10.37,2013-09-14 11:20:00,
2013-09-14 12:25:00,69.6,46.7,29.62,NW,315,0.0,0.0,44,0.00,CLR,SKC,0.02,WeatherDisplay:10.37,2013-09-14 11:25:00,
2013-09-14 12:30:00,67.3,45.2,29.62,NNW,327,0.0,0.0,45,0.00,CLR,SKC,0.02,WeatherDisplay:10.37,2013-09-14 11:30:00,
2013-09-14 12:35:00,65.5,45.3,29.62,NW,315,0.0,0.0,48,0.00,CLR,SKC,0.02,WeatherDisplay:10.37,2013-09-14 11:35:00,
2013-09-14 12:40:00,63.3,43.3,29.62,NNE,22,0.0,0.0,48,0.00,CLR,SKC,0.02,WeatherDisplay:10.37,2013-09-14 11:40:00,
2013-09-14 12:45:00,62.4,43.5,29.62,NNE,15,0.0,0.0,50,0.00,CLR,SKC,0.02,WeatherDisplay:10.37,2013-09-14 11:45:00,
2013-09-14 12:50:00,61.9,43.0,29.62,North,0,0.0,0.0,50,0.00,CLR,SKC,0.02,WeatherDisplay:10.37,2013-09-14 11:50:00,
2013-09-14 12:55:00,61.4,43.6,29.62,WNW,303,0.0,0.0,52,0.00,CLR,SKC,0.02,WeatherDisplay:10.37,2013-09-14 11:55:00,
2013-09-14 13:00:00,61.5,43.7,29.62,NW,315,0.0,0.0,52,0.00,CLR,SKC,0.02,WeatherDisplay:10.37,2013-09-14 12:00:00,
2013-09-14 13:05:00,61.9,44.6,29.62,NW,315,0.0,0.0,53,0.00,CLR,SKC,0.02,WeatherDisplay:10.37,2013-09-14 12:05:00,
2013-09-14 13:10:00,62.1,44.7,29.62,NW,315,0.0,0.0,53,0.00,CLR,SKC,0.02,WeatherDisplay:10.37,2013-09-14 12:10:00,
2013-09-14 13:15:00,62.2,44.4,29.61,NW,326,0.0,0.0,52,0.00,CLR,SKC,0.02,WeatherDisplay:10.37,2013-09-14 12:15:00,
2013-09-14 13:20:00,62.2,44.4,29.62,NW,315,0.0,0.0,52,0.00,CLR,SKC,0.02,WeatherDisplay:10.37,2013-09-14 12:20:00,
2013-09-14 13:25:00,62.1,44.2,29.61,NNW,331,0.0,0.0,52,0.00,CLR,SKC,0.02,WeatherDisplay:10.37,2013-09-14 12:25:00,
2013-09-14 13:30:00,61.5,44.2,29.62,NW,315,0.0,0.0,53,0.00,CLR,SKC,0.02,WeatherDisplay:10.37,2013-09-14 12:30:00,
2013-09-14 13:35:00,61.2,44.4,29.61,NW,315,0.0,0.0,54,0.00,CLR,SKC,0.02,WeatherDisplay:10.37,2013-09-14 12:35:00,
2013-09-14 13:40:00,60.8,44.0,29.61,NW,323,0.0,0.0,54,0.00,CLR,SKC,0.02,WeatherDisplay:10.37,2013-09-14 12:40:00,
2013-09-14 13:45:00,60.6,44.4,29.61,WNW,298,0.0,0.0,55,0.00,CLR,SKC,0.02,WeatherDisplay:10.37,2013-09-14 12:45:00,
2013-09-14 13:50:00,61.0,45.2,29.61,NNW,338,0.0,0.0,56,0.00,CLR,SKC,0.02,WeatherDisplay:10.37,2013-09-14 12:50:00,
2013-09-14 13:55:00,60.8,45.0,29.61,NW,315,0.0,0.0,56,0.00,CLR,SKC,0.02,WeatherDisplay:10.37,2013-09-14 12:55:00,
2013-09-14 14:00:00,60.8,45.5,29.61,WNW,292,0.0,0.0,57,0.00,CLR,SKC,0.02,WeatherDisplay:10.37,2013-09-14 13:00:00,
2013-09-14 14:05:00,61.1,45.7,29.60,WNW,290,0.0,0.0,57,0.00,CLR,SKC,0.02,WeatherDisplay:10.37,2013-09-14 13:05:00,
2013-09-14 14:10:00,61.3,46.4,29.61,NNW,338,0.0,0.0,58,0.00,CLR,SKC,0.02,WeatherDisplay:10.37,2013-09-14 13:10:00,
2013-09-14 14:15:00,61.5,46.1,29.60,North,0,0.0,0.0,57,0.00,CLR,SKC,0.02,WeatherDisplay:10.37,2013-09-14 13:15:00,
2013-09-14 14:20:00,61.9,46.0,29.60,North,355,0.0,0.0,56,0.00,CLR,SKC,0.02,WeatherDisplay:10.37,2013-09-14 13:20:00,
2013-09-14 14:25:00,61.5,45.2,29.59,North,0,0.0,0.0,55,0.00,CLR,SKC,0.02,WeatherDisplay:10.37,2013-09-14 13:25:00,
2013-09-14 14:30:00,61.2,44.4,29.60,NW,315,0.0,0.0,54,0.00,CLR,SKC,0.02,WeatherDisplay:10.37,2013-09-14 13:30:00,
2013-09-14 14:35:00,61.0,44.7,29.59,North,0,0.0,0.0,55,0.00,CLR,SKC,0.02,WeatherDisplay:10.37,2013-09-14 13:35:00,
2013-09-14 14:40:00,60.8,44.5,29.59,NNE,22,0.0,0.0,55,0.00,CLR,SKC,0.02,WeatherDisplay:10.37,2013-09-14 13:40:00,
2013-09-14 14:45:00,60.6,44.4,29.59,WNW,292,0.0,0.0,55,0.00,CLR,SKC,0.02,WeatherDisplay:10.37,2013-09-14 13:45:00,
2013-09-14 14:50:00,60.4,44.7,29.59,WNW,292,0.0,0.0,56,0.00,CLR,SKC,0.02,WeatherDisplay:10.37,2013-09-14 13:50:00,
2013-09-14 14:55:00,60.4,45.1,29.59,SSW,202,0.0,0.0,57,0.00,CLR,SKC,0.02,WeatherDisplay:10.37,2013-09-14 13:55:00,
2013-09-14 15:00:00,60.1,44.8,29.59,NW,315,0.0,0.0,57,0.00,CLR,SKC,0.02,WeatherDisplay:10.37,2013-09-14 14:00:00,
2013-09-14 15:05:00,60.4,45.1,29.58,NNW,338,0.0,0.0,57,0.00,CLR,SKC,0.02,WeatherDisplay:10.37,2013-09-14 14:05:00,
2013-09-14 15:10:00,60.4,45.1,29.59,North,0,0.0,0.0,57,0.00,CLR,SKC,0.02,WeatherDisplay:10.37,2013-09-14 14:10:00,
2013-09-14 15:15:00,60.4,45.1,29.58,WNW,292,0.0,0.0,57,0.00,CLR,SKC,0.02,WeatherDisplay:10.37,2013-09-14 14:15:00,
2013-09-14 15:20:00,60.6,45.3,29.58,SW,225,0.0,0.0,57,0.00,CLR,SKC,0.02,WeatherDisplay:10.37,2013-09-14 14:20:00,
2013-09-14 15:25:00,60.6,45.8,29.58,WNW,292,0.0,0.0,58,0.00,CLR,SKC,0.02,WeatherDisplay:10.37,2013-09-14 14:25:00,
2013-09-14 15:30:00,60.6,45.8,29.58,WSW,248,0.0,0.0,58,0.00,CLR,SKC,0.02,WeatherDisplay:10.37,2013-09-14 14:30:00,
2013-09-14 15:35:00,60.8,45.9,29.57,NW,315,0.0,0.0,58,0.00,CLR,SKC,0.02,WeatherDisplay:10.37,2013-09-14 14:35:00,
2013-09-14 15:40:00,61.0,46.1,29.58,NNW,338,0.0,0.0,58,0.00,CLR,SKC,0.02,WeatherDisplay:10.37,2013-09-14 14:40:00,
2013-09-14 15:45:00,61.0,46.1,29.57,NW,315,0.0,0.0,58,0.00,CLR,SKC,0.02,WeatherDisplay:10.37,2013-09-14 14:45:00,
2013-09-14 15:50:00,61.0,46.1,29.57,SSW,202,0.0,0.0,58,0.00,CLR,SKC,0.02,WeatherDisplay:10.37,2013-09-14 14:50:00,
2013-09-14 15:55:00,61.0,46.1,29.57,West,270,0.0,0.0,58,0.00,CLR,SKC,0.02,WeatherDisplay:10.37,2013-09-14 14:55:00,
2013-09-14 16:00:00,61.2,46.3,29.57,West,270,0.0,0.0,58,0.00,CLR,SKC,0.02,WeatherDisplay:10.37,2013-09-14 15:00:00,
2013-09-14 16:05:00,61.2,46.7,29.57,WNW,292,0.0,0.0,59,0.00,CLR,SKC,0.02,WeatherDisplay:10.37,2013-09-14 15:05:00,
2013-09-14 16:10:00,61.0,46.5,29.57,WNW,292,0.0,0.0,59,0.00,CLR,SKC,0.02,WeatherDisplay:10.37,2013-09-14 15:10:00,
2013-09-14 16:15:00,61.0,46.5,29.57,WNW,292,0.0,0.0,59,0.00,CLR,SKC,0.02,WeatherDisplay:10.37,2013-09-14 15:15:00,
2013-09-14 16:20:00,61.2,46.7,29.57,NW,315,0.0,0.0,59,0.00,CLR,SKC,0.02,WeatherDisplay:10.37,2013-09-14 15:20:00,
2013-09-14 16:25:00,61.3,46.4,29.57,WNW,292,0.0,0.0,58,0.00,CLR,SKC,0.02,WeatherDisplay:10.37,2013-09-14 15:25:00,
2013-09-14 16:30:00,61.0,46.1,29.57,NW,315,0.0,0.0,58,0.00,CLR,SKC,0.02,WeatherDisplay:10.37,2013-09-14 15:30:00,
2013-09-14 16:35:00,60.6,45.8,29.57,WNW,292,0.0,0.0,58,0.00,CLR,SKC,0.02,WeatherDisplay:10.37,2013-09-14 15:35:00,
2013-09-14 16:40:00,60.4,46.0,29.57,WNW,292,0.0,0.0,59,0.00,CLR,SKC,0.02,WeatherDisplay:10.37,2013-09-14 15:40:00,
2013-09-14 16:46:00,60.6,46.2,29.57,NW,315,0.0,0.0,59,0.00,CLR,SKC,0.02,WeatherDisplay:10.37,2013-09-14 15:46:00,
2013-09-14 16:51:00,60.4,46.0,29.57,NNW,338,0.0,0.0,59,0.00,CLR,SKC,0.02,WeatherDisplay:10.37,2013-09-14 15:51:00,
2013-09-14 16:56:00,60.4,46.0,29.57,WNW,292,0.0,0.0,59,0.00,CLR,SKC,0.02,WeatherDisplay:10.37,2013-09-14 15:56:00,
2013-09-14 17:01:00,60.4,46.0,29.57,NW,315,0.0,0.0,59,0.00,CLR,SKC,0.02,WeatherDisplay:10.37,2013-09-14 16:01:00,
2013-09-14 17:06:00,60.4,46.5,29.57,NW,315,0.0,0.0,60,0.00,CLR,SKC,0.02,WeatherDisplay:10.37,2013-09-14 16:06:00,
2013-09-14 17:11:00,60.1,46.1,29.57,NNW,338,0.0,0.0,60,0.00,CLR,SKC,0.02,WeatherDisplay:10.37,2013-09-14 16:11:00,
2013-09-14 17:16:00,59.9,46.0,29.57,West,270,0.0,0.0,60,0.00,CLR,SKC,0.02,WeatherDisplay:10.37,2013-09-14 16:16:00,
2013-09-14 17:21:00,59.5,45.6,29.57,West,270,0.0,0.0,60,0.00,CLR,SKC,0.02,WeatherDisplay:10.37,2013-09-14 16:21:00,
2013-09-14 17:26:00,59.4,45.9,29.57,SW,225,0.0,0.0,61,0.00,CLR,SKC,0.02,WeatherDisplay:10.37,2013-09-14 16:26:00,
2013-09-14 17:31:00,58.8,45.4,29.57,WNW,292,0.0,0.0,61,0.00,CLR,SKC,0.02,WeatherDisplay:10.37,2013-09-14 16:31:00,
2013-09-14 17:36:00,58.8,45.8,29.57,WNW,292,0.0,0.0,62,0.00,CLR,SKC,0.02,WeatherDisplay:10.37,2013-09-14 16:36:00,
2013-09-14 17:41:00,58.8,45.8,29.57,West,270,0.0,0.0,62,0.00,CLR,SKC,0.02,WeatherDisplay:10.37,2013-09-14 16:41:00,
2013-09-14 17:46:00,58.8,45.8,29.57,NW,315,0.0,0.0,62,0.00,CLR,SKC,0.02,WeatherDisplay:10.37,2013-09-14 16:46:00,
2013-09-14 17:51:00,59.0,46.4,29.57,WNW,292,0.0,0.0,63,0.00,CLR,SKC,0.02,WeatherDisplay:10.37,2013-09-14 16:51:00,
2013-09-14 17:56:00,59.4,46.8,29.57,NW,315,0.0,0.0,63,0.00,CLR,SKC,0.02,WeatherDisplay:10.37,2013-09-14 16:56:00,
2013-09-14 18:01:00,59.7,46.7,29.57,NW,315,0.0,0.0,62,0.00,CLR,SKC,0.02,WeatherDisplay:10.37,2013-09-14 17:01:00,
2013-09-14 18:06:00,60.1,47.0,29.57,WNW,292,0.0,0.0,62,0.00,CLR,SKC,0.02,WeatherDisplay:10.37,2013-09-14 17:06:00,
2013-09-14 18:11:00,60.1,46.6,29.57,NW,315,0.0,0.0,61,0.00,CLR,SKC,0.02,WeatherDisplay:10.37,2013-09-14 17:11:00,
2013-09-14 18:16:00,59.7,46.2,29.57,NNW,338,0.0,0.0,61,0.00,CLR,SKC,0.02,WeatherDisplay:10.37,2013-09-14 17:16:00,
2013-09-14 18:21:00,59.4,45.9,29.57,WNW,292,0.0,0.0,61,0.00,CLR,SKC,0.02,WeatherDisplay:10.37,2013-09-14 17:21:00,
2013-09-14 18:26:00,58.8,45.4,29.57,NW,315,0.0,0.0,61,0.00,CLR,SKC,0.02,WeatherDisplay:10.37,2013-09-14 17:26:00,
2013-09-14 18:31:00,58.8,45.8,29.57,NNW,338,0.0,0.0,62,0.00,CLR,SKC,0.02,WeatherDisplay:10.37,2013-09-14 17:31:00,
2013-09-14 18:36:00,58.1,45.1,29.57,WNW,292,0.0,0.0,62,0.00,CLR,SKC,0.02,WeatherDisplay:10.37,2013-09-14 17:36:00,
2013-09-14 18:41:00,57.7,45.2,29.57,West,270,0.0,0.0,63,0.00,CLR,SKC,0.02,WeatherDisplay:10.37,2013-09-14 17:41:00,
2013-09-14 18:46:00,57.4,44.9,29.57,NNW,338,0.0,0.0,63,0.00,CLR,SKC,0.02,WeatherDisplay:10.37,2013-09-14 17:46:00,
2013-09-14 18:51:00,57.0,45.0,29.57,NW,315,0.0,0.0,64,0.00,CLR,SKC,0.02,WeatherDisplay:10.37,2013-09-14 17:51:00,
2013-09-14 18:56:00,56.8,44.8,29.57,West,270,0.0,0.0,64,0.00,CLR,SKC,0.02,WeatherDisplay:10.37,2013-09-14 17:56:00,
2013-09-14 19:01:00,56.5,44.9,29.57,WSW,248,0.0,0.0,65,0.00,CLR,SKC,0.02,WeatherDisplay:10.37,2013-09-14 18:01:00,
2013-09-14 19:06:00,55.9,44.3,29.57,WNW,292,0.0,0.0,65,0.00,CLR,SKC,0.02,WeatherDisplay:10.37,2013-09-14 18:06:00,
2013-09-14 19:11:00,55.8,44.6,29.57,West,270,0.0,0.0,66,0.00,CLR,SKC,0.02,WeatherDisplay:10.37,2013-09-14 18:11:00,
2013-09-14 19:16:00,55.2,44.1,29.57,WSW,248,0.0,0.0,66,0.00,CLR,SKC,0.02,WeatherDisplay:10.37,2013-09-14 18:16:00,
2013-09-14 19:21:00,54.9,43.7,29.57,West,270,0.0,0.0,66,0.00,CLR,SKC,0.02,WeatherDisplay:10.37,2013-09-14 18:21:00,
2013-09-14 19:26:00,54.3,43.6,29.56,West,270,0.0,0.0,67,0.00,CLR,SKC,0.02,WeatherDisplay:10.37,2013-09-14 18:26:00,
2013-09-14 19:31:00,54.1,43.8,29.56,West,270,0.0,0.0,68,0.00,CLR,SKC,0.02,WeatherDisplay:10.37,2013-09-14 18:31:00,
2013-09-14 19:36:00,53.6,43.3,29.57,West,270,0.0,0.0,68,0.00,CLR,SKC,0.02,WeatherDisplay:10.37,2013-09-14 18:36:00,
2013-09-14 19:41:00,53.4,43.1,29.56,WNW,292,0.0,0.0,68,0.00,CLR,SKC,0.02,WeatherDisplay:10.37,2013-09-14 18:41:00,
2013-09-14 19:46:00,53.2,43.3,29.56,West,270,0.0,0.0,69,0.00,CLR,SKC,0.02,WeatherDisplay:10.37,2013-09-14 18:46:00,
2013-09-14 19:51:00,52.9,43.0,29.56,West,270,0.0,0.0,69,0.00,CLR,SKC,0.02,WeatherDisplay:10.37,2013-09-14 18:51:00,
2013-09-14 19:56:00,52.7,43.2,29.57,West,270,0.0,0.0,70,0.00,CLR,SKC,0.02,WeatherDisplay:10.37,2013-09-14 18:56:00,
2013-09-14 20:01:00,52.5,43.0,29.57,WNW,292,0.0,0.0,70,0.00,CLR,SKC,0.02,WeatherDisplay:10.37,2013-09-14 19:01:00,
2013-09-14 20:06:00,52.5,43.0,29.56,WNW,292,0.0,0.0,70,0.00,CLR,SKC,0.02,WeatherDisplay:10.37,2013-09-14 19:06:00,
2013-09-14 20:11:00,52.3,43.2,29.56,West,270,0.0,0.0,71,0.00,CLR,SKC,0.02,WeatherDisplay:10.37,2013-09-14 19:11:00,
2013-09-14 20:16:00,52.3,43.2,29.57,WSW,248,0.0,0.0,71,0.00,CLR,SKC,0.02,WeatherDisplay:10.37,2013-09-14 19:16:00,
2013-09-14 20:21:00,52.3,43.6,29.57,WNW,292,0.0,0.0,72,0.00,CLR,SKC,0.02,WeatherDisplay:10.37,2013-09-14 19:21:00,
2013-09-14 20:26:00,52.2,43.4,29.56,West,270,0.0,0.0,72,0.00,CLR,SKC,0.02,WeatherDisplay:10.37,2013-09-14 19:26:00,
2013-09-14 20:31:00,52.2,43.4,29.56,WNW,292,0.0,0.0,72,0.00,CLR,SKC,0.02,WeatherDisplay:10.37,2013-09-14 19:31:00,
2013-09-14 20:36:00,52.0,43.2,29.55,WNW,292,0.0,0.0,72,0.00,CLR,SKC,0.02,WeatherDisplay:10.37,2013-09-14 19:36:00,
2013-09-14 20:41:00,51.8,43.4,29.56,WNW,292,0.0,0.0,73,0.00,CLR,SKC,0.02,WeatherDisplay:10.37,2013-09-14 19:41:00,
2013-09-14 20:46:00,51.6,43.2,29.56,WSW,248,0.0,0.0,73,0.00,CLR,SKC,0.02,WeatherDisplay:10.37,2013-09-14 19:46:00,
2013-09-14 20:51:00,51.6,43.2,29.56,West,270,0.0,0.0,73,0.00,CLR,SKC,0.02,WeatherDisplay:10.37,2013-09-14 19:51:00,
2013-09-14 20:56:00,51.6,43.6,29.55,WNW,292,0.0,0.0,74,0.00,CLR,SKC,0.02,WeatherDisplay:10.37,2013-09-14 19:56:00,
2013-09-14 21:01:00,51.6,43.6,29.56,West,270,0.0,0.0,74,0.00,CLR,SKC,0.02,WeatherDisplay:10.37,2013-09-14 20:01:00,
2013-09-14 21:06:00,51.4,43.4,29.56,West,270,0.0,0.0,74,0.00,CLR,SKC,0.02,WeatherDisplay:10.37,2013-09-14 20:06:00,
2013-09-14 21:11:00,51.3,43.3,29.56,West,270,0.0,0.0,74,0.00,CLR,SKC,0.02,WeatherDisplay:10.37,2013-09-14 20:11:00,
2013-09-14 21:16:00,51.1,43.1,29.55,WNW,292,0.0,0.0,74,0.00,CLR,SKC,0.02,WeatherDisplay:10.37,2013-09-14 20:16:00,
2013-09-14 21:21:00,50.7,42.7,29.55,WNW,292,0.0,0.0,74,0.00,CLR,SKC,0.02,WeatherDisplay:10.37,2013-09-14 20:21:00,
2013-09-14 21:26:00,50.7,43.1,29.55,WNW,292,0.0,0.0,75,0.00,CLR,SKC,0.02,WeatherDisplay:10.37,2013-09-14 20:26:00,
2013-09-14 21:31:00,50.5,42.9,29.55,WNW,292,0.0,0.0,75,0.00,CLR,SKC,0.02,WeatherDisplay:10.37,2013-09-14 20:31:00,
2013-09-14 21:36:00,50.4,42.7,29.55,WNW,292,0.0,0.0,75,0.00,CLR,SKC,0.02,WeatherDisplay:10.37,2013-09-14 20:36:00,
2013-09-14 21:41:00,50.2,42.6,29.55,WNW,292,0.0,0.0,75,0.00,CLR,SKC,0.02,WeatherDisplay:10.37,2013-09-14 20:41:00,
2013-09-14 21:46:00,50.0,42.4,29.55,WNW,292,0.0,0.0,75,0.00,CLR,SKC,0.02,WeatherDisplay:10.37,2013-09-14 20:46:00,
2013-09-14 21:51:00,49.8,42.6,29.55,WNW,292,0.0,0.0,76,0.00,CLR,SKC,0.02,WeatherDisplay:10.37,2013-09-14 20:51:00,
2013-09-14 21:56:00,49.8,42.6,29.54,NW,315,0.0,0.0,76,0.00,CLR,SKC,0.02,WeatherDisplay:10.37,2013-09-14 20:56:00,
2013-09-14 22:01:00,49.6,42.4,29.55,NW,315,0.0,0.0,76,0.00,CLR,SKC,0.02,WeatherDisplay:10.37,2013-09-14 21:01:00,
2013-09-14 22:06:00,49.6,42.4,29.54,NW,315,0.0,0.0,76,0.00,CLR,SKC,0.02,WeatherDisplay:10.37,2013-09-14 21:06:00,
2013-09-14 22:11:00,49.6,42.7,29.53,NW,315,0.0,0.0,77,0.00,CLR,SKC,0.02,WeatherDisplay:10.37,2013-09-14 21:11:00,
2013-09-14 22:17:00,49.6,42.7,29.53,NW,315,0.0,0.0,77,0.00,CLR,SKC,0.02,WeatherDisplay:10.37,2013-09-14 21:17:00,
2013-09-14 22:22:00,49.6,42.7,29.53,NW,315,0.0,0.0,77,0.00,CLR,SKC,0.02,WeatherDisplay:10.37,2013-09-14 21:22:00,
2013-09-14 22:27:00,49.6,42.7,29.52,North,0,0.0,0.0,77,0.00,CLR,SKC,0.02,WeatherDisplay:10.37,2013-09-14 21:27:00,
2013-09-14 22:32:00,49.6,43.1,29.52,North,0,0.0,0.0,78,0.00,CLR,SKC,0.02,WeatherDisplay:10.37,2013-09-14 21:32:00,
2013-09-14 22:37:00,49.3,42.7,29.52,North,0,0.0,0.0,78,0.00,CLR,SKC,0.02,WeatherDisplay:10.37,2013-09-14 21:37:00,
2013-09-14 22:42:00,49.3,42.7,29.51,North,0,0.0,0.0,78,0.00,CLR,SKC,0.02,WeatherDisplay:10.37,2013-09-14 21:42:00,
2013-09-14 22:47:00,49.3,42.7,29.51,North,0,0.0,0.0,78,0.00,CLR,SKC,0.02,WeatherDisplay:10.37,2013-09-14 21:47:00,
2013-09-14 22:52:00,49.1,42.5,29.51,North,0,0.0,0.0,78,0.00,CLR,SKC,0.02,WeatherDisplay:10.37,2013-09-14 21:52:00,
2013-09-14 22:57:00,49.1,42.5,29.50,WNW,292,0.0,0.0,78,0.00,CLR,SKC,0.02,WeatherDisplay:10.37,2013-09-14 21:57:00,
2013-09-14 23:02:00,49.1,42.5,29.50,West,270,0.0,0.0,78,0.00,CLR,SKC,0.02,WeatherDisplay:10.37,2013-09-14 22:02:00,
2013-09-14 23:07:00,49.3,43.0,29.50,West,270,0.0,0.0,79,0.00,CLR,SKC,0.02,WeatherDisplay:10.37,2013-09-14 22:07:00,
2013-09-14 23:12:00,49.3,43.0,29.50,NW,315,0.0,0.0,79,0.00,CLR,SKC,0.02,WeatherDisplay:10.37,2013-09-14 22:12:00,
2013-09-14 23:17:00,49.3,43.0,29.50,West,270,0.0,0.0,79,0.00,CLR,SKC,0.02,WeatherDisplay:10.37,2013-09-14 22:17:00,
2013-09-14 23:22:00,49.3,43.0,29.49,WNW,292,0.0,0.0,79,0.00,CLR,SKC,0.02,WeatherDisplay:10.37,2013-09-14 22:22:00,
2013-09-14 23:27:00,49.1,42.9,29.49,West,270,0.0,0.0,79,0.00,CLR,SKC,0.02,WeatherDisplay:10.37,2013-09-14 22:27:00,
2013-09-14 23:32:00,48.9,42.7,29.49,West,270,0.0,0.0,79,0.00,CLR,SKC,0.02,WeatherDisplay:10.37,2013-09-14 22:32:00,
2013-09-14 23:37:00,48.7,42.5,29.49,West,270,0.0,0.0,79,0.00,CLR,SKC,0.02,WeatherDisplay:10.37,2013-09-14 22:37:00,
2013-09-14 23:42:00,48.7,42.5,29.47,West,270,0.0,0.0,79,0.00,CLR,SKC,0.02,WeatherDisplay:10.37,2013-09-14 22:42:00,
2013-09-14 23:47:00,48.6,42.3,29.47,West,270,0.0,0.0,79,0.00,CLR,SKC,0.02,WeatherDisplay:10.37,2013-09-14 22:47:00,
2013-09-14 23:49:00,48.6,42.3,29.47,West,270,0.0,0.0,79,0.00,CLR,SKC,0.02,WeatherDisplay:10.37,2013-09-14 22:49:00,
2013-09-14 23:54:00,48.6,42.7,29.47,WSW,248,0.0,0.0,80,0.00,CLR,SKC,0.02,WeatherDisplay:10.37,2013-09-14 22:54:00,
2013-09-14 23:59:00,48.6,42.7,29.47,WSW,248,0.0,0.0,80,0.00,CLR,SKC,0.02,WeatherDisplay:10.37,2013-09-14 22:59:00,